• In Italy
  • List of Countries
  • For 7 days
  • Water Temperature
  • Satellite Maps
  • Weather Map
  • Weather Widgets
  • user-avatar
    Login

    Hourly Weather Neuquén

    Today, 20 August, Sunday

    Time Temperature Precipitation Wind Pressure Humidity
    00:00 +5°C° 0 mm 7 mps 740 mmHg 47%
    01:00 +4°C° 0 mm 6 mps 740 mmHg 48%
    02:00 +4°C° 0 mm 6 mps 740 mmHg 49%
    03:00 +4°C° 0 mm 6 mps 741 mmHg 51%
    04:00 +3°C° 0 mm 5 mps 741 mmHg 52%
    05:00 +3°C° 0 mm 5 mps 741 mmHg 53%
    06:00 +4°C° 0 mm 4 mps 741 mmHg 53%
    07:00 +4°C° 0 mm 4 mps 742 mmHg 53%
    08:00 +6°C° 0 mm 4 mps 742 mmHg 48%
    09:00 +8°C° 0 mm 4 mps 741 mmHg 42%
    10:00 +9°C° 0 mm 5 mps 741 mmHg 36%
    11:00 +10°C° 0 mm 5 mps 741 mmHg 34%
    12:00 +11°C° 0 mm 6 mps 740 mmHg 32%
    13:00 +13°C° 0 mm 6 mps 740 mmHg 30%
    14:00 +14°C° 0 mm 6 mps 739 mmHg 29%
    15:00 +14°C° 0 mm 6 mps 738 mmHg 28%
    16:00 +14°C° 0 mm 6 mps 738 mmHg 27%
    17:00 +13°C° 0 mm 5 mps 737 mmHg 29%
    18:00 +12°C° 0 mm 5 mps 737 mmHg 32%
    19:00 +12°C° 0 mm 5 mps 737 mmHg 35%
    20:00 +10°C° 0 mm 5 mps 736 mmHg 36%
    21:00 +10°C° 0 mm 5 mps 736 mmHg 37%
    22:00 +9°C° 0 mm 5 mps 736 mmHg 38%
    23:00 +9°C° 0 mm 5 mps 735 mmHg 40%

    Tomorrow, 21 August, Monday

    Time Temperature Precipitation Wind Pressure Humidity
    00:00 +10°C° 0 mm 4 mps 735 mmHg 42%
    01:00 +8°C° 0 mm 4 mps 734 mmHg 43%
    02:00 +8°C° 0 mm 4 mps 734 mmHg 43%
    03:00 +9°C° 0 mm 3 mps 733 mmHg 43%
    04:00 +8°C° 0 mm 3 mps 732 mmHg 43%
    05:00 +9°C° 0 mm 3 mps 732 mmHg 41%
    06:00 +9°C° 0 mm 3 mps 732 mmHg 39%
    07:00 +9°C° 0 mm 3 mps 732 mmHg 37%
    08:00 +12°C° 0 mm 3 mps 731 mmHg 31%
    09:00 +14°C° 0 mm 3 mps 731 mmHg 25%
    10:00 +17°C° 0 mm 4 mps 731 mmHg 18%
    11:00 +19°C° 0 mm 4 mps 730 mmHg 16%
    12:00 +21°C° 0 mm 5 mps 729 mmHg 14%
    13:00 +23°C° 0 mm 5 mps 728 mmHg 12%
    14:00 +23°C° 0 mm 5 mps 728 mmHg 13%
    15:00 +23°C° 0 mm 4 mps 727 mmHg 14%
    16:00 +24°C° 0 mm 3 mps 727 mmHg 15%
    17:00 +22°C° 0 mm 3 mps 726 mmHg 17%
    18:00 +20°C° 0 mm 4 mps 726 mmHg 19%
    19:00 +19°C° 0 mm 4 mps 725 mmHg 22%
    20:00 +19°C° 0 mm 4 mps 725 mmHg 23%
    21:00 +18°C° 0 mm 4 mps 724 mmHg 25%
    22:00 +17°C° 0 mm 5 mps 724 mmHg 27%
    23:00 +17°C° 0 mm 4 mps 723 mmHg 27%

    Day after tomorrow, 22 August, Tuesday

    Time Temperature Precipitation Wind Pressure Humidity
    00:00 +17°C° 0 mm 4 mps 722 mmHg 27%
    01:00 +15°C° 0 mm 4 mps 721 mmHg 27%
    02:00 +16°C° 0 mm 5 mps 721 mmHg 26%
    03:00 +16°C° 0 mm 5 mps 720 mmHg 25%
    04:00 +16°C° 0 mm 6 mps 720 mmHg 24%
    05:00 +16°C° 0 mm 7 mps 719 mmHg 24%
    06:00 +15°C° 0 mm 7 mps 719 mmHg 24%
    07:00 +15°C° 0 mm 8 mps 718 mmHg 25%
    08:00 +18°C° 0 mm 13 mps 718 mmHg 19%
    09:00 +22°C° 0 mm 17 mps 718 mmHg 13%
    10:00 +25°C° 0 mm 22 mps 718 mmHg 7%
    11:00 +23°C° 0 mm 22 mps 718 mmHg 13%
    12:00 +20°C° 0 mm 22 mps 719 mmHg 19%
    13:00 +19°C° 0 mm 21 mps 719 mmHg 25%
    14:00 +15°C° 0 mm 20 mps 720 mmHg 27%
    15:00 +12°C° 0 mm 18 mps 722 mmHg 29%
    16:00 +10°C° 0 mm 17 mps 723 mmHg 31%
    17:00 +10°C° 0 mm 15 mps 725 mmHg 33%
    18:00 +9°C° 0 mm 14 mps 726 mmHg 35%
    19:00 +8°C° 0 mm 12 mps 727 mmHg 37%
    20:00 +8°C° 0 mm 12 mps 728 mmHg 38%
    21:00 +8°C° 0 mm 11 mps 728 mmHg 40%
    22:00 +7°C° 0 mm 10 mps 729 mmHg 41%
    23:00 +7°C° 0 mm 10 mps 729 mmHg 42%

    23 August, Wednesday

    Time Temperature Precipitation Wind Pressure Humidity
    00:00 +7°C° 0 mm 10 mps 729 mmHg 42%
    01:00 +6°C° 0 mm 10 mps 730 mmHg 43%
    02:00 +6°C° 0 mm 10 mps 730 mmHg 44%
    03:00 +6°C° 0 mm 10 mps 730 mmHg 44%
    04:00 +5°C° 0 mm 9 mps 731 mmHg 45%
    05:00 +5°C° 0 mm 8 mps 731 mmHg 45%
    06:00 +5°C° 0 mm 6 mps 732 mmHg 44%
    07:00 +6°C° 0 mm 5 mps 732 mmHg 44%
    08:00 +7°C° 0 mm 5 mps 732 mmHg 39%
    09:00 +9°C° 0 mm 5 mps 732 mmHg 33%
    10:00 +10°C° 0 mm 5 mps 733 mmHg 28%
    11:00 +11°C° 0 mm 6 mps 732 mmHg 25%
    12:00 +13°C° 0 mm 6 mps 731 mmHg 23%
    13:00 +14°C° 0 mm 6 mps 730 mmHg 20%
    14:00 +14°C° 0 mm 7 mps 730 mmHg 21%
    15:00 +13°C° 0 mm 8 mps 729 mmHg 22%
    16:00 +13°C° 0 mm 9 mps 728 mmHg 23%
    17:00 +12°C° 0 mm 8 mps 729 mmHg 25%
    18:00 +11°C° 0 mm 8 mps 729 mmHg 27%
    19:00 +11°C° 0 mm 7 mps 729 mmHg 28%
    20:00 +10°C° 0 mm 7 mps 728 mmHg 29%
    21:00 +10°C° 0 mm 7 mps 728 mmHg 31%
    22:00 +10°C° 0 mm 7 mps 727 mmHg 32%
    23:00 +10°C° 0 mm 6 mps 727 mmHg 34%

    24 August, Thursday

    Time Temperature Precipitation Wind Pressure Humidity
    00:00 +10°C° 0 mm 6 mps 726 mmHg 36%
    01:00 +9°C° 0 mm 6 mps 726 mmHg 37%
    02:00 +9°C° 0 mm 5 mps 726 mmHg 38%
    03:00 +9°C° 0 mm 5 mps 726 mmHg 40%
    04:00 +8°C° 0 mm 4 mps 726 mmHg 41%
    05:00 +8°C° 0 mm 4 mps 727 mmHg 42%
    06:00 +8°C° 0 mm 5 mps 727 mmHg 44%
    07:00 +8°C° 0 mm 5 mps 728 mmHg 46%
    08:00 +9°C° 0 mm 6 mps 728 mmHg 41%
    09:00 +10°C° 0 mm 7 mps 728 mmHg 36%
    10:00 +12°C° 0 mm 8 mps 729 mmHg 32%
    11:00 +12°C° 0 mm 9 mps 729 mmHg 29%
    12:00 +13°C° 0 mm 9 mps 728 mmHg 26%
    13:00 +14°C° 0 mm 10 mps 728 mmHg 23%
    14:00 +13°C° 0 mm 10 mps 729 mmHg 22%
    15:00 +13°C° 0 mm 10 mps 729 mmHg 22%
    16:00 +13°C° 0 mm 11 mps 729 mmHg 22%
    17:00 +12°C° 0 mm 9 mps 730 mmHg 25%
    18:00 +11°C° 0 mm 7 mps 731 mmHg 28%
    19:00 +10°C° 0 mm 5 mps 732 mmHg 32%
    20:00 +11°C° 0 mm 4 mps 732 mmHg 34%
    21:00 +10°C° 0 mm 3 mps 733 mmHg 37%
    22:00 +10°C° 0 mm 2 mps 733 mmHg 39%
    23:00 +10°C° 0 mm 2 mps 733 mmHg 41%

    25 August, Friday

    Time Temperature Precipitation Wind Pressure Humidity
    00:00 +10°C° 0 mm 1 mps 734 mmHg 43%
    01:00 +10°C° 0 mm 1 mps 734 mmHg 44%
    02:00 +9°C° 0 mm 1 mps 734 mmHg 45%
    03:00 +9°C° 0 mm 1 mps 734 mmHg 46%
    04:00 +9°C° 0 mm 1 mps 735 mmHg 47%
    05:00 +9°C° 0 mm 1 mps 735 mmHg 47%
    06:00 +9°C° 0 mm 1 mps 735 mmHg 48%
    07:00 +9°C° 0 mm 1 mps 736 mmHg 49%
    08:00 +9°C° 0 mm 2 mps 736 mmHg 47%
    09:00 +10°C° 0 mm 3 mps 736 mmHg 45%
    10:00 +11°C° 0 mm 3 mps 736 mmHg 43%
    11:00 +11°C° 0.1 mm 4 mps 736 mmHg 42%
    12:00 +12°C° 0.1 mm 4 mps 736 mmHg 42%
    13:00 +12°C° 0.1 mm 5 mps 736 mmHg 41%
    14:00 +13°C° 0 mm 5 mps 736 mmHg 39%
    15:00 +13°C° 0 mm 5 mps 736 mmHg 37%
    16:00 +13°C° 0 mm 5 mps 736 mmHg 35%
    17:00 +13°C° 0 mm 5 mps 737 mmHg 37%
    18:00 +12°C° 0 mm 4 mps 737 mmHg 39%
    19:00 +11°C° 0 mm 4 mps 737 mmHg 41%
    20:00 +10°C° 0 mm 5 mps 737 mmHg 42%
    21:00 +9°C° 0 mm 5 mps 737 mmHg 44%
    22:00 +9°C° 0 mm 6 mps 737 mmHg 45%
    23:00 +9°C° 0 mm 6 mps 737 mmHg 45%
    Show more